Weather History for Alliance, NE

Change the Weather History Date:

Wednesday, May 29, 2013

  Actual Average Record
Temperature  
Mean Temperature 60 °F 59 °F  
Max Temperature 71 °F 74 °F 97 °F (2003)
Min Temperature 48 °F 44 °F 19 °F (1947)
Degree Days  
Heating Degree Days 5 7  
Month to date heating degree days 279 315  
Since 1 July heating degree days 7109 7204  
Cooling Degree Days 0 1  
Month to date cooling degree days 22 4  
Year to date cooling degree days 22 4  
Growing Degree Days 10 (Base 50)    
Moisture  
Dew Point 50 °F    
Average Humidity 74    
Maximum Humidity 100    
Minimum Humidity 47    
Precipitation  
Precipitation 0.24 in 0.12 in 1.42 in (1982)
Month to date precipitation 2.26 2.39  
Year to date precipitation 5.08 5.25  
Sea Level Pressure  
Sea Level Pressure 29.55 in    
Wind  
Wind Speed 11 mph (West)    
Max Wind Speed 33 mph    
Max Gust Speed 39 mph    
Visibility 9 miles    
Events Rain , Thunderstorm    
T = Trace of Precipitation, MM = Missing Value Source: NWS Daily Summary

Daily Weather History Graph

Daily Weather History Graph

Search for Another Location

Airport:

Trip Planner

Search our weather history database for the weather conditions in past years. The results will help you decide how hot, cold, wet, or windy it might be!

Date:

Astronomy

May. 29, 2013 Rise Set
Actual Time 5:19 AM MDT 8:18 PM MDT
Civil Twilight 4:45 AM MDT 8:51 PM MDT
Nautical Twilight 4:03 AM MDT 9:34 PM MDT
Astronomical Twilight 3:13 AM MDT 10:24 PM MDT
Moon No Moon Rise 10:24 AM MDT (5/29)
Length of Visible Light 16h 05m
Length of Day
14h 59m
Waning Gibbous, 72% of the Moon is Illuminated
May 29
Waning Gibbous
May 31
Last Quarter
Jun 8
New
Jun 16
First Quarter
Jun 23
Full

Hourly Weather History & Observations

Time (MDT) Temp. Dew Point Humidity Pressure Visibility Wind Dir Wind Speed Gust Speed Precip Events Conditions
12:53 AM 57.0 °F 50.0 °F 77% 29.57 in 10.0 mi SE 10.4 mph - 0.01 in Rain Light Rain
1:53 AM 55.0 °F 52.0 °F 89% 29.58 in 10.0 mi SE 15.0 mph 24.2 mph 0.06 in Rain Light Rain
2:49 AM 55.4 °F 53.6 °F 94% 29.71 in 10.0 mi SSW 15.0 mph - 0.04 in Rain Light Rain
2:53 AM 55.0 °F 53.1 °F 93% 29.60 in 10.0 mi SSW 16.1 mph 21.9 mph 0.04 in Rain Light Rain
3:53 AM 54.0 °F 51.1 °F 90% 29.54 in 10.0 mi SSW 9.2 mph - 0.00 in   Mostly Cloudy
4:53 AM 51.1 °F 48.9 °F 92% 29.50 in 10.0 mi ESE 5.8 mph - N/A   Clear
5:53 AM 53.1 °F 51.1 °F 93% 29.50 in 10.0 mi ENE 10.4 mph - N/A   Partly Cloudy
6:35 AM 53.6 °F 51.8 °F 94% 29.65 in 10.0 mi West 9.2 mph - N/A   Overcast
6:45 AM 53.6 °F 51.8 °F 94% 29.65 in 10.0 mi West 8.1 mph - N/A   Overcast
6:53 AM 54.0 °F 53.1 °F 97% 29.58 in 10.0 mi West 10.4 mph - N/A   Overcast
7:08 AM 55.4 °F 53.6 °F 94% 29.66 in 10.0 mi SW 4.6 mph - N/A   Mostly Cloudy
7:53 AM 57.0 °F 52.0 °F 83% 29.59 in 10.0 mi WSW 4.6 mph - N/A   Mostly Cloudy
8:53 AM 59.0 °F 52.0 °F 78% 29.58 in 10.0 mi West 5.8 mph - N/A   Mostly Cloudy
9:53 AM 61.0 °F 52.0 °F 72% 29.56 in 10.0 mi West 5.8 mph - N/A   Partly Cloudy
10:53 AM 64.9 °F 51.1 °F 61% 29.52 in 10.0 mi NW 10.4 mph - N/A   Partly Cloudy
11:53 AM 68.0 °F 51.1 °F 55% 29.52 in 10.0 mi North 6.9 mph - N/A   Clear
12:53 PM 69.1 °F 53.1 °F 57% 29.52 in 10.0 mi WNW 9.2 mph - N/A   Mostly Cloudy
1:53 PM 69.1 °F 48.9 °F 49% 29.47 in 10.0 mi West 12.7 mph - N/A   Clear
2:53 PM 70.0 °F 48.9 °F 47% 29.46 in 10.0 mi Variable 6.9 mph - N/A   Mostly Cloudy
3:53 PM 64.0 °F 48.0 °F 56% 29.48 in 10.0 mi West 28.8 mph 35.7 mph N/A   Overcast
4:53 PM 62.1 °F 46.9 °F 58% 29.45 in 10.0 mi WNW 32.2 mph 38.0 mph N/A   Scattered Clouds
5:40 PM 57.2 °F 46.4 °F 67% 29.57 in 10.0 mi West 29.9 mph 38.0 mph 0.01 in Rain , Thunderstorm Light Rain
5:53 PM 55.0 °F 48.9 °F 80% 29.50 in 3.0 mi WNW 25.3 mph 35.7 mph 0.05 in Rain , Thunderstorm Rain
6:00 PM 53.6 °F 48.2 °F 82% 29.56 in 1.8 mi WNW 25.3 mph 31.1 mph 0.06 in Rain , Thunderstorm Heavy Rain
6:10 PM 53.6 °F 48.2 °F 82% 29.56 in 3.0 mi NW 19.6 mph 29.9 mph 0.09 in Rain , Thunderstorm Light Rain
6:24 PM 53.6 °F 50.0 °F 88% 29.57 in 10.0 mi NW 17.3 mph 25.3 mph 0.09 in   Mostly Cloudy
6:53 PM 54.0 °F 50.0 °F 86% 29.51 in 10.0 mi NW 12.7 mph - 0.09 in   Partly Cloudy
7:53 PM 54.0 °F 51.1 °F 90% 29.47 in 10.0 mi North 8.1 mph - N/A   Mostly Cloudy
8:53 PM 53.1 °F 50.0 °F 89% 29.50 in 10.0 mi WNW 8.1 mph - N/A   Clear
9:53 PM 52.0 °F 48.9 °F 89% 29.53 in 10.0 mi East 5.8 mph - N/A   Clear
10:53 PM 50.0 °F 48.0 °F 93% 29.52 in 10.0 mi Calm Calm - N/A   Clear
11:53 PM 48.0 °F 46.0 °F 93% 29.52 in 10.0 mi SW 8.1 mph - N/A   Clear